This is the latest recevied weather packets stored in our database for station/object KY0TEQ-13. If no packets are shown the sender has not sent any weather packets the latest 10 day(s).
| Time | Temp. | Humidity | Pressure | Rain* | Wind** | Luminosity | Snow |
|---|---|---|---|---|---|---|---|
| 1787978629 | 23.33° C | 34% | 1311.3 hPa | 0 mm | - | 0 W/m² | - |
| 1787978325 | 23.33° C | 34% | 1311.2 hPa | 0 mm | - | 0 W/m² | - |
| 1787978024 | 23.33° C | 34% | 1311.4 hPa | 0 mm | - | 0 W/m² | - |
| 1787977719 | 23.89° C | 33% | 1311.3 hPa | 0 mm | - | 0 W/m² | - |
| 1787977415 | 23.89° C | 33% | 1311.4 hPa | 0 mm | - | 0 W/m² | - |
| 1787977110 | 23.89° C | 32% | 1311.4 hPa | 0 mm | - | 0 W/m² | - |
| 1787976806 | 23.89° C | 32% | 1311.4 hPa | 0 mm | - | 0 W/m² | - |
| 1787976506 | 23.33° C | 32% | 1311.3 hPa | 0 mm | - | 0 W/m² | - |
| 1787976201 | 23.33° C | 33% | 1311.2 hPa | 0 mm | - | 0 W/m² | - |
| 1787975900 | 23.33° C | 32% | 1310.7 hPa | 0 mm | - | 0 W/m² | - |
| 1787975598 | 23.89° C | 32% | 1310.5 hPa | 0 mm | - | 0 W/m² | - |
| 1787975293 | 23.33° C | 32% | 1310.1 hPa | 0 mm | - | 0 W/m² | - |
| 1787974991 | 23.33° C | 32% | 1310.4 hPa | 0 mm | - | 0 W/m² | - |
| 1787974690 | 23.89° C | 32% | 1310.1 hPa | 0 mm | - | 0 W/m² | - |
| 1787974385 | 23.89° C | 31% | 1310.2 hPa | 0 mm | - | 0 W/m² | - |
| 1787974084 | 23.33° C | 32% | 1309.9 hPa | 0 mm | - | 0 W/m² | - |
| 1787973779 | 22.78° C | 31% | 1309.4 hPa | 0 mm | - | 0 W/m² | - |
| 1787973475 | 22.78° C | 31% | 1309.4 hPa | 0 mm | - | 0 W/m² | - |
| 1787973170 | 22.78° C | 33% | 1309.1 hPa | 0 mm | - | 0 W/m² | - |
| 1787972869 | 23.33° C | 32% | 1309.3 hPa | 0 mm | - | 0 W/m² | - |
| 1787972563 | 22.22° C | 34% | 1309.1 hPa | 0 mm | - | 0 W/m² | - |
| 1787972263 | 21.67° C | 36% | 1309.3 hPa | 0 mm | - | 0 W/m² | - |
| 1787971957 | 21.67° C | 37% | 1309.3 hPa | 0 mm | - | 0 W/m² | - |
| 1787971653 | 22.22° C | 34% | 1309 hPa | 0 mm | - | 0 W/m² | - |
| 1787971349 | 22.22° C | 35% | 1309 hPa | 0 mm | - | 0 W/m² | - |
* Rain latest hour (hover to see other rain measurements)
** Current wind speed in m/s (hover to see current wind gust speed)